Terminal Aerodrome Forecast
Issued by NWS Newport/Morehead City, NC

Home | Current Version | Previous Version | Graphics & Text | Print | Product List | Glossary On
Versions: 1 2 3 4 5 6 7 8 9 10 11 12 13 14 15 16 17 18 19 20 21 22 23
000
FTUS42 KMHX 251000 AAA
TAFEWN
TAF AMD
KEWN 251034Z 2510/2606 36004KT 5SM BR BKN004
      TEMPO 2510/2512 2SM BR SCT004
     FM251230 05005KT P6SM SCT040 BKN100=

USA.gov is the U.S. government's official web portal to all federal, state and local government web resources and services.